RH
26 22 18 15 14 19 29 28 27 24 23 22 20 18 15 17 16 16 18 17 17 18 18 17 17 24 20 24 24 32 42 47 45 50 38 42 34 28 26 30 28 29 37 30 24
18 18 16 15 19 28 29 28 25 23 21 20 19 17 15 15 19 17 16 15 14 15 16 18 17 20 27 25 28 42 46 38 28 38 40 40 33 32 30 31 30 33 33 31 24
22 20 17 19 26 28 28 26 23 21 20 19 18 16 15 16 17 17 15 14 14 14 15 17 17 18 25 23 26 29 42 29 27 29 36 37 34 30 35 37 35 36 37 30 28
22 18 20 25 28 28 26 23 22 20 19 18 16 14 13 19 23 16 16 14 14 14 15 15 16 23 25 26 26 31 31 27 26 33 34 37 33 31 36 31 27 32 32 30 30
21 20 25 26 27 26 23 23 21 20 19 18 16 14 14 19 18 16 16 15 14 14 16 16 18 24 26 26 26 30 29 27 26 30 31 31 32 32 32 31 28 33 32 32 30
20 26 26 26 26 23 22 21 20 19 18 18 16 16 19 20 16 16 17 16 15 16 16 17 19 22 25 26 29 28 29 28 25 25 25 28 28 28 27 32 35 35 36 34 32
27 28 27 26 24 22 21 20 19 18 17 17 15 17 18 17 16 17 17 16 15 15 18 18 18 19 23 26 27 29 28 28 28 26 27 26 32 35 28 33 38 38 38 36 34
27 28 26 25 23 22 22 20 18 17 16 16 15 17 20 16 16 16 16 16 16 15 16 17 17 23 24 25 26 28 29 35 30 31 28 27 27 24 34 36 38 40 45 39 37
28 26 25 23 24 24 22 19 15 16 16 16 16 18 20 16 16 16 15 16 16 16 15 16 19 25 24 30 36 34 34 35 32 33 30 33 29 27 35 34 37 41 43 40 38
26 27 25 25 24 21 19 17 17 18 16 17 17 17 16 17 15 14 15 16 17 17 19 18 32 35 29 36 26 33 30 23 30 32 32 36 38 31 33 37 35 38 41 41 38
28 25 25 25 23 20 21 22 20 21 17 19 19 18 16 15 15 16 16 16 17 18 22 22 23 26 27 22 19 18 20 22 22 30 34 38 38 32 31 38 39 41 42 38 36
27 26 25 24 22 25 26 31 30 32 29 19 17 17 17 16 18 16 15 18 17 21 19 21 25 21 18 18 18 19 21 24 24 29 32 34 32 27 30 35 32 33 36 36 34
28 26 24 24 23 26 25 33 32 34 28 23 18 17 18 17 19 18 16 19 19 21 17 22 21 19 19 20 21 20 23 22 23 26 32 33 36 30 26 33 32 35 32 34 33
30 27 24 24 23 28 32 33 35 32 31 23 18 18 18 19 19 17 18 18 20 20 20 23 21 22 22 21 20 19 23 24 26 32 36 27 39 29 31 30 28 33 38 33 36
30 27 24 30 30 34 35 29 27 25 31 22 21 17 18 20 20 20 18 20 20 22 20 22 22 22 23 22 20 20 26 25 27 34 37 36 40 34 31 32 30 26 33 35 33
29 27 25 29 33 31 29 27 28 36 38 23 22 22 22 22 21 22 20 20 21 23 24 26 22 21 21 21 20 25 24 33 42 45 52 40 40 34 31 29 25 24 28 32 36
29 28 28 29 31 27 27 29 39 36 22 26 25 24 23 24 23 25 23 26 28 29 27 28 29 24 22 22 25 26 34 42 46 55 52 34 36 31 24 25 24 22 24 29 34
29 27 28 30 27 26 30 36 37 28 27 23 23 23 26 22 22 25 26 30 27 26 29 27 23 29 25 22 26 32 33 46 38 41 37 33 41 28 23 26 25 23 24 27 33
28 32 33 35 30 28 34 40 35 30 23 25 26 28 26 24 22 26 30 31 26 26 25 30 25 28 25 23 21 24 34 29 32 37 44 36 32 24 25 23 24 24 25 28 32
30 35 38 40 32 31 40 39 31 25 25 25 25 27 25 27 27 27 27 25 25 25 23 23 28 27 28 24 24 27 26 33 43 35 41 41 38 29 21 25 26 27 29 29 31
41 48 40 38 31 46 39 43 29 28 27 27 28 30 27 26 30 30 28 24 29 28 24 24 24 24 29 34 31 32 30 31 40 49 46 40 34 26 23 23 26 26 27 27 28
60 44 41 37 41 59 49 37 28 31 31 31 31 33 33 28 30 31 31 26 29 29 26 25 32 34 28 25 26 26 27 32 37 30 54 54 45 23 26 26 26 28 26 28 30
81 72 46 44 45 51 47 35 30 34 34 35 36 37 33 33 34 35 31 35 30 29 31 28 32 32 27 32 28 30 31 30 35 42 44 45 27 20 26 25 27 29 27 28 30
78 64 64 61 61 49 45 41 37 36 34 35 35 35 39 39 37 36 34 37 33 32 37 29 35 30 28 25 32 29 29 32 33 42 32 37 23 18 16 20 22 25 28 30 31
82 61 64 63 59 50 42 42 41 39 38 36 36 40 42 43 40 45 40 42 39 42 37 37 42 42 38 37 37 38 37 34 34 29 34 24 24 21 18 19 22 22 25 26 26
64 78 66 66 63 49 54 48 49 45 39 42 45 38 47 46 41 36 37 44 41 51 44 46 43 46 48 39 43 43 39 36 35 33 29 27 28 19 17 18 21 21 28 30 31
90 70 68 60 52 58 62 49 43 40 38 38 44 42 45 48 44 44 44 43 40 46 51 53 52 52 54 41 44 51 41 32 30 38 31 35 25 19 22 25 25 22 26 29 29
Wind_Speed
5 4 5 4 4 5 3 2 1 5 7 8 8 8 9 7 10 6 9 9 9 8 9 9 4 2 2 3 5 3 4 3 6 7 4 5 5 2 2 5 2 1 6 5 33
5 5 5 5 6 4 2 1 4 6 7 8 8 8 8 8 5 9 11 11 10 8 7 6 4 4 3 3 4 4 4 7 2 5 5 7 5 8 4 4 3 1 3 18 41
6 5 6 6 6 4 1 3 6 6 7 8 9 8 9 7 1 2 13 11 7 8 6 7 5 3 3 3 4 2 4 4 1 3 7 8 5 5 7 6 8 9 8 23 27
6 6 6 6 5 2 1 4 5 7 8 9 9 9 9 2 2 5 13 12 6 5 5 4 2 4 3 2 3 5 3 2 1 2 5 8 6 4 8 7 5 10 24 26 23
7 7 6 5 3 1 3 5 5 7 8 7 9 10 3 3 3 5 9 16 2 6 7 1 2 4 5 4 2 3 3 2 1 4 5 7 6 8 9 10 1 16 19 19 23
7 6 5 5 2 4 4 5 7 8 6 7 8 10 2 2 2 3 7 12 13 5 9 7 2 4 5 2 2 2 3 2 1 1 1 4 3 3 6 8 8 14 16 16 23
7 5 6 4 3 4 5 8 9 8 7 7 8 7 3 3 2 1 5 6 10 9 3 9 2 4 4 3 4 6 3 3 3 2 2 2 6 11 4 6 11 11 12 13 21
6 6 3 3 3 5 8 9 9 8 7 8 7 3 3 2 3 2 4 2 5 5 4 5 9 7 3 4 4 3 2 2 2 6 2 4 9 6 8 11 11 11 9 12 17
6 3 1 2 4 8 9 9 6 8 9 8 4 1 4 3 4 3 3 3 8 2 2 2 5 4 3 3 3 2 3 3 5 9 4 5 8 3 6 9 10 10 10 11 11
3 2 1 3 6 9 10 9 9 9 4 3 2 3 2 3 3 3 2 4 2 5 3 3 5 3 3 3 3 4 3 4 5 5 5 5 16 11 8 9 14 11 10 11 13
1 2 3 6 8 9 10 2 5 4 3 2 2 2 2 3 4 1 3 3 2 4 1 0 3 5 7 6 4 3 3 5 4 4 5 8 13 17 9 9 11 11 11 14 18
2 4 6 7 8 8 3 5 1 1 4 4 2 2 3 1 2 3 6 2 2 3 3 4 5 5 3 3 3 4 3 5 3 1 4 7 14 15 8 9 14 17 15 17 14
3 5 7 9 4 4 9 5 1 2 1 4 4 2 3 1 3 3 2 1 3 3 2 5 3 3 3 2 3 3 4 3 3 4 5 6 9 6 3 3 5 9 11 10 16
5 6 7 8 2 3 3 4 2 1 4 4 3 3 2 1 3 1 1 1 1 4 2 4 1 3 3 3 5 3 2 1 3 4 4 1 5 6 5 8 7 10 10 15 13
6 6 7 6 3 2 1 4 2 1 2 2 2 2 1 3 3 1 1 3 3 3 4 6 4 4 4 5 5 5 1 1 1 0 4 2 1 8 2 7 12 11 12 14 15
6 6 5 2 1 2 4 4 1 4 4 2 2 2 0 2 2 1 1 1 0 2 2 6 1 3 5 2 2 2 1 4 4 2 2 6 6 7 5 9 5 7 10 13 12
5 5 3 2 1 5 4 2 4 3 2 3 3 2 2 3 3 4 2 1 4 0 2 3 3 1 2 1 2 3 4 3 3 1 6 2 3 10 7 9 8 11 11 12 10
6 5 3 2 4 4 1 4 2 3 4 1 1 1 3 1 3 2 2 3 4 3 0 3 6 5 3 4 4 5 5 5 5 3 4 5 7 7 7 9 8 9 8 5 9
4 2 2 2 2 3 5 2 5 4 2 1 2 0 2 1 1 0 4 4 5 7 6 3 5 1 1 1 3 2 4 2 1 0 1 4 8 11 5 7 6 8 6 10 10
3 2 2 2 1 1 4 4 4 2 1 1 1 4 2 2 1 2 3 3 2 2 1 2 4 2 1 1 2 4 2 2 2 4 5 5 6 7 7 9 8 9 11 11 9
2 3 0 2 2 4 3 6 4 1 1 3 3 3 4 3 5 3 5 2 4 3 2 3 3 3 1 7 8 2 3 3 2 5 5 4 7 7 8 8 10 13 11 12 11
2 1 1 2 3 1 3 5 1 4 1 4 2 5 5 2 3 4 6 4 1 6 5 4 4 5 11 2 3 4 6 6 4 5 5 3 9 7 9 10 7 11 10 8 9
2 2 2 1 2 2 5 4 2 4 5 4 4 5 3 3 3 5 4 1 0 5 6 4 2 3 7 2 1 5 5 6 3 2 7 3 11 3 6 7 8 9 9 9 9
2 2 3 4 1 4 2 5 4 1 3 3 3 2 2 3 4 5 3 2 1 2 2 1 3 7 9 7 3 4 6 6 7 4 8 12 29 21 25 12 11 9 11 10 10
2 3 1 2 2 2 2 2 3 3 2 2 3 6 6 4 3 6 4 2 2 3 3 4 5 5 9 11 5 7 11 14 14 17 12 25 23 21 26 8 9 10 7 11 14
1 2 4 2 3 2 4 4 5 4 4 5 5 5 7 7 8 6 5 4 7 1 5 2 4 2 5 10 11 14 15 19 19 21 21 26 29 27 29 20 17 17 9 11 12
2 2 3 3 2 1 4 6 2 1 1 2 6 1 4 9 7 8 6 6 6 8 8 6 5 3 8 4 7 7 12 18 10 6 10 13 27 21 19 12 9 14 8 10 11
Wind_Direction
172 175 188 176 152 143 153 125 5 336 336 332 338 348 1 53 67 64 33 337 337 329 323 335 40 191 350 47 42 102 70 177 202 155 216 172 148 32 87 127 103 113 151 209 172
149 165 159 150 143 154 163 47 326 339 337 330 331 338 352 344 265 39 1 343 336 330 332 330 13 54 43 22 12 77 118 206 193 182 180 175 163 154 143 166 226 318 12 151 163
148 161 156 147 153 169 167 320 326 342 330 328 329 333 340 333 91 326 352 345 335 320 307 299 305 124 66 39 9 69 162 171 217 267 156 152 151 171 146 227 209 197 167 158 165
157 156 159 159 171 173 290 318 325 332 329 331 328 334 336 317 195 353 358 348 349 347 287 301 49 76 85 93 47 94 13 155 279 151 122 159 145 214 197 224 206 187 164 165 178
159 167 164 164 182 243 298 311 325 324 328 336 339 343 349 33 233 3 8 11 315 12 34 326 74 116 146 120 97 93 186 63 69 117 151 137 192 216 236 234 210 147 165 179 186
168 169 166 174 211 277 310 319 316 317 324 337 349 346 16 289 214 358 352 10 25 27 36 38 69 114 106 66 97 112 92 119 322 89 124 185 245 168 267 150 141 160 182 189 192
166 178 166 209 251 296 321 311 310 307 317 326 344 346 43 244 253 38 351 8 24 38 74 42 206 67 124 93 160 133 84 327 234 229 269 96 277 231 208 157 167 191 193 196 205
173 172 190 251 295 315 308 304 305 304 305 320 329 311 246 233 259 334 0 262 357 20 61 42 71 96 67 119 56 12 67 352 203 155 224 128 272 258 183 161 200 204 203 204 211
168 194 232 305 312 312 314 310 303 310 304 303 312 173 265 221 261 302 320 324 328 339 1 34 65 101 51 79 24 2 255 223 303 201 136 177 270 280 176 186 211 215 212 212 220
188 222 308 314 317 318 323 308 288 302 305 288 244 37 282 230 272 288 283 315 352 337 13 67 54 78 43 79 230 230 247 247 238 220 204 199 261 268 215 212 225 217 217 219 221
256 332 329 331 323 324 330 311 18 349 19 236 257 231 265 285 276 263 338 332 50 48 298 336 76 228 226 199 215 225 227 257 255 201 179 242 263 268 239 217 234 232 221 224 226
360 334 333 331 329 329 5 73 134 171 316 262 272 274 275 324 337 278 344 68 62 269 316 14 241 222 179 202 239 240 258 266 282 140 184 282 273 260 216 221 219 227 224 225 231
346 341 334 329 336 63 76 74 55 301 122 302 224 219 241 159 270 257 32 116 205 263 232 178 245 160 183 233 242 261 218 265 246 330 247 325 288 279 233 238 225 230 232 222 220
340 340 330 341 133 32 68 30 341 239 53 264 248 260 175 123 289 199 87 108 294 236 239 234 196 190 215 252 151 274 180 27 327 30 257 74 282 292 257 254 237 241 221 235 222
336 342 339 7 354 68 26 350 324 142 351 163 218 173 123 166 300 217 91 62 232 248 92 254 193 210 223 222 170 229 115 119 74 230 352 241 104 271 22 265 250 242 234 236 228
327 347 357 359 41 41 328 327 144 43 260 205 154 236 40 207 250 124 71 50 345 301 226 238 251 194 214 146 147 136 82 50 59 91 300 228 163 273 211 218 243 233 232 232 229
314 331 345 327 354 335 324 77 33 158 12 211 226 174 227 246 253 177 198 232 192 23 303 308 233 205 163 139 23 89 59 323 331 330 227 184 171 249 252 242 228 228 232 229 221
311 303 292 323 343 338 209 53 204 245 216 311 207 238 226 151 264 242 289 273 220 129 113 216 310 186 162 198 204 198 172 164 248 234 277 331 237 251 224 266 227 238 248 253 229
315 291 271 203 315 328 79 99 215 211 208 124 347 236 275 245 236 268 221 228 226 175 182 193 269 174 183 129 139 169 198 204 172 31 0 239 285 294 265 263 237 239 239 242 234
347 312 250 245 311 62 82 232 233 236 133 125 226 190 256 243 205 166 241 211 224 209 119 234 290 211 143 45 226 185 186 54 7 262 262 282 278 240 286 253 233 242 235 242 243
18 36 342 240 165 55 183 232 267 184 188 192 213 268 250 264 202 224 252 240 169 174 129 171 159 275 37 202 189 132 240 199 158 171 217 272 257 217 247 252 238 239 233 239 233
18 28 5 155 62 11 183 204 226 210 212 234 191 215 218 244 254 237 232 226 182 158 183 206 168 242 227 227 182 189 214 163 162 241 236 204 264 263 247 258 258 257 241 246 236
27 274 358 174 166 247 286 285 267 194 216 196 231 208 172 221 261 216 247 133 256 186 182 187 233 322 322 4 346 225 202 198 138 107 217 185 267 271 271 281 259 257 267 266 260
57 345 326 45 60 150 220 264 248 196 245 195 236 165 152 256 224 274 255 223 244 215 127 127 213 199 235 239 141 224 225 210 183 186 250 225 267 272 273 259 272 259 256 261 253
49 252 209 280 299 212 205 285 274 298 231 211 261 207 178 234 251 231 248 303 233 212 180 163 236 207 258 265 257 251 265 252 215 233 226 264 255 262 267 265 247 253 259 279 281
106 29 355 287 310 226 183 244 220 253 211 260 218 227 203 205 208 239 204 195 228 137 180 182 255 238 264 256 243 254 255 261 250 248 256 259 271 264 274 283 277 277 266 268 266
39 69 109 278 323 98 227 223 255 350 229 207 221 215 239 240 245 248 243 248 241 173 195 170 195 160 263 284 316 288 224 237 243 195 226 250 256 278 274 253 259 270 243 257 263